If you wish to contribute or participate in the discussions about articles you are invited to join SKYbrary as a registered user

 Actions

Bob Baker Memorial Airport

From SKYbrary Wiki

PAIK
Airport
ICAO: PAIK – IATA: IAN
Summary
Name Bob Baker Memorial Airport
Region North America
Territory Alaska US.gif
Location , Alaska
Serving Kiana
Elevation 50.597 m
166 ft
166 ft50.597 m
Type medium airport
Coordinates 66° 58' 33.00" N, 160° 26' 12.00" W
Runways
Designator Length Width Surface ROPS
6/24 1036 m3,398.95 ft
30 m98.425 ft
GVL /


METAR
Observation PAIK 131356Z AUTO 00000KT 10SM SCT024 OVC042 M01/M02 A3018 RMK AO2 SLP223 T10111022 FZRANO
Station Kinana / Bob Baker Me
Date/Time 13 October 2019 13:56:00
Wind direction
Wind speed 00 kts
Lowest cloud amount scattered clouds
Temperature
Dew point
Humidity 92%
QNH hPa
Weather condition n/a